Year,Month,Day,Hour,Minute,Value (Times are PST for temperature in C)
2016,09,24,00,00,7.30
2016,09,24,00,01,7.30
2016,09,24,00,02,7.30
2016,09,24,00,03,7.30
2016,09,24,00,04,7.30
2016,09,24,00,05,7.30
2016,09,24,00,06,7.30
2016,09,24,00,07,7.20
2016,09,24,00,08,7.20
2016,09,24,00,09,7.20
2016,09,24,00,10,7.20
2016,09,24,00,11,7.20
2016,09,24,00,12,7.20
2016,09,24,00,13,7.10
2016,09,24,00,14,7.10
2016,09,24,00,15,7.10
2016,09,24,00,16,7.10
2016,09,24,00,17,7.10
2016,09,24,00,18,7.10
2016,09,24,00,19,7.10
2016,09,24,00,20,7.10
2016,09,24,00,21,7.10
2016,09,24,00,22,7.20
2016,09,24,00,23,7.20
2016,09,24,00,24,7.20
2016,09,24,00,25,7.20
2016,09,24,00,26,7.20
2016,09,24,00,27,7.20
2016,09,24,00,28,7.20
2016,09,24,00,29,7.20
2016,09,24,00,30,7.20
2016,09,24,00,31,7.20
2016,09,24,00,32,7.20
2016,09,24,00,33,7.20
2016,09,24,00,34,7.20
2016,09,24,00,35,7.20
2016,09,24,00,36,7.20
2016,09,24,00,37,7.20
2016,09,24,00,38,7.20
2016,09,24,00,39,7.20
2016,09,24,00,40,7.20
2016,09,24,00,41,7.20
2016,09,24,00,42,7.10
2016,09,24,00,43,7.10
2016,09,24,00,44,7.10
2016,09,24,00,45,7.10
2016,09,24,00,46,7.10
2016,09,24,00,47,7.10
2016,09,24,00,48,7.10
2016,09,24,00,49,7.10
2016,09,24,00,50,7.10
2016,09,24,00,51,7.10
2016,09,24,00,52,7.00
2016,09,24,00,53,7.00
2016,09,24,00,54,7.00
2016,09,24,00,55,6.90
2016,09,24,00,56,6.90
2016,09,24,00,57,6.90
2016,09,24,00,58,6.90
2016,09,24,00,59,6.80
2016,09,24,01,00,6.80
2016,09,24,01,01,6.80
2016,09,24,01,02,6.80
2016,09,24,01,03,6.70
2016,09,24,01,04,6.70
2016,09,24,01,05,6.70
2016,09,24,01,06,6.70
2016,09,24,01,07,6.70
2016,09,24,01,08,6.60
2016,09,24,01,09,6.60
2016,09,24,01,10,6.60
2016,09,24,01,11,6.60
2016,09,24,01,12,6.60
2016,09,24,01,13,6.60
2016,09,24,01,14,6.60
2016,09,24,01,15,6.60
2016,09,24,01,16,6.50
2016,09,24,01,17,6.50
2016,09,24,01,18,6.50
2016,09,24,01,19,6.50
2016,09,24,01,20,6.50
2016,09,24,01,21,6.50
2016,09,24,01,22,6.50
2016,09,24,01,23,6.40
2016,09,24,01,24,6.50
2016,09,24,01,25,6.50
2016,09,24,01,26,6.60
2016,09,24,01,27,6.60
2016,09,24,01,28,6.60
2016,09,24,01,29,6.60
2016,09,24,01,30,6.70
2016,09,24,01,31,6.70
2016,09,24,01,32,6.70
2016,09,24,01,33,6.70
2016,09,24,01,34,6.70
2016,09,24,01,35,6.70
2016,09,24,01,36,6.70
2016,09,24,01,37,6.60
2016,09,24,01,38,6.60
2016,09,24,01,39,6.60
2016,09,24,01,40,6.60
2016,09,24,01,41,6.50
2016,09,24,01,42,6.50
2016,09,24,01,43,6.50
2016,09,24,01,44,6.50
2016,09,24,01,45,6.50
2016,09,24,01,46,6.50
2016,09,24,01,47,6.50
2016,09,24,01,48,6.50
2016,09,24,01,49,6.50
2016,09,24,01,50,6.50
2016,09,24,01,51,6.50
2016,09,24,01,52,6.50
2016,09,24,01,53,6.50
2016,09,24,01,54,6.50
2016,09,24,01,55,6.50
2016,09,24,01,56,6.50
2016,09,24,01,57,6.50
2016,09,24,01,58,6.50
2016,09,24,01,59,6.50
2016,09,24,02,00,6.50
2016,09,24,02,01,6.50
2016,09,24,02,02,6.50
2016,09,24,02,03,6.50
2016,09,24,02,04,6.50
2016,09,24,02,05,6.50
2016,09,24,02,06,6.50
2016,09,24,02,07,6.50
2016,09,24,02,08,6.50
2016,09,24,02,09,6.50
2016,09,24,02,10,6.50
2016,09,24,02,11,6.50
2016,09,24,02,12,6.50
2016,09,24,02,13,6.50
2016,09,24,02,14,6.50
2016,09,24,02,15,6.40
2016,09,24,02,16,6.40
2016,09,24,02,17,6.40
2016,09,24,02,18,6.40
2016,09,24,02,19,6.40
2016,09,24,02,20,6.40
2016,09,24,02,21,6.40
2016,09,24,02,22,6.40
2016,09,24,02,23,6.40
2016,09,24,02,24,6.40
2016,09,24,02,25,6.50
2016,09,24,02,26,6.50
2016,09,24,02,27,6.50
2016,09,24,02,28,6.60
2016,09,24,02,29,6.60
2016,09,24,02,30,6.60
2016,09,24,02,31,6.60
2016,09,24,02,32,6.60
2016,09,24,02,33,6.70
2016,09,24,02,34,6.70
2016,09,24,02,35,6.70
2016,09,24,02,36,6.70
2016,09,24,02,37,6.70
2016,09,24,02,38,6.80
2016,09,24,02,39,6.80
2016,09,24,02,40,6.80
2016,09,24,02,41,6.80
2016,09,24,02,42,6.80
2016,09,24,02,43,6.80
2016,09,24,02,44,6.80
2016,09,24,02,45,6.90
2016,09,24,02,46,6.90
2016,09,24,02,47,6.90
2016,09,24,02,48,6.90
2016,09,24,02,49,6.80
2016,09,24,02,50,6.80
2016,09,24,02,51,6.80
2016,09,24,02,52,6.80
2016,09,24,02,53,6.80
2016,09,24,02,54,6.80
2016,09,24,02,55,6.80
2016,09,24,02,56,6.80
2016,09,24,02,57,6.90
2016,09,24,02,58,6.90
2016,09,24,02,59,6.90
2016,09,24,03,00,6.90
2016,09,24,03,01,6.90
2016,09,24,03,02,6.90
2016,09,24,03,03,6.90
2016,09,24,03,04,6.90
2016,09,24,03,05,6.90
2016,09,24,03,06,6.90
2016,09,24,03,07,6.90
2016,09,24,03,08,6.90
2016,09,24,03,09,6.90
2016,09,24,03,10,6.80
2016,09,24,03,11,6.80
2016,09,24,03,12,6.80
2016,09,24,03,13,6.80
2016,09,24,03,14,6.80
2016,09,24,03,15,6.80
2016,09,24,03,16,6.80
2016,09,24,03,17,6.80
2016,09,24,03,18,6.80
2016,09,24,03,19,6.80
2016,09,24,03,20,6.80
2016,09,24,03,21,6.80
2016,09,24,03,22,6.80
2016,09,24,03,23,6.80
2016,09,24,03,24,6.80
2016,09,24,03,25,6.80
2016,09,24,03,26,6.80
2016,09,24,03,27,6.80
2016,09,24,03,28,6.90
2016,09,24,03,29,6.80
2016,09,24,03,30,6.80
2016,09,24,03,31,6.80
2016,09,24,03,32,6.80
2016,09,24,03,33,6.80
2016,09,24,03,34,6.80
2016,09,24,03,35,6.80
2016,09,24,03,36,6.80
2016,09,24,03,37,6.80
2016,09,24,03,38,6.80
2016,09,24,03,39,6.80
2016,09,24,03,40,6.70
2016,09,24,03,41,6.80
2016,09,24,03,42,6.70
2016,09,24,03,43,6.70
2016,09,24,03,44,6.70
2016,09,24,03,45,6.70
2016,09,24,03,46,6.70
2016,09,24,03,47,6.70
2016,09,24,03,48,6.70
2016,09,24,03,49,6.70
2016,09,24,03,50,6.60
2016,09,24,03,51,6.60
2016,09,24,03,52,6.60
2016,09,24,03,53,6.60
2016,09,24,03,54,6.60
2016,09,24,03,55,6.60
2016,09,24,03,56,6.60
2016,09,24,03,57,6.60
2016,09,24,03,58,6.60
2016,09,24,03,59,6.70
2016,09,24,04,00,6.70
2016,09,24,04,01,6.70
2016,09,24,04,02,6.80
2016,09,24,04,03,6.80
2016,09,24,04,04,6.80
2016,09,24,04,05,6.90
2016,09,24,04,06,6.90
2016,09,24,04,07,6.90
2016,09,24,04,08,6.90
2016,09,24,04,09,6.90
2016,09,24,04,10,6.90
2016,09,24,04,11,6.90
2016,09,24,04,12,6.90
2016,09,24,04,13,6.90
2016,09,24,04,14,6.90
2016,09,24,04,15,6.90
2016,09,24,04,16,6.90
2016,09,24,04,17,6.90
2016,09,24,04,18,6.90
2016,09,24,04,19,6.90
2016,09,24,04,20,6.90
2016,09,24,04,21,6.90
2016,09,24,04,22,6.90
2016,09,24,04,23,6.90
2016,09,24,04,24,6.90
2016,09,24,04,25,6.90
2016,09,24,04,26,6.90
2016,09,24,04,27,6.90
2016,09,24,04,28,6.90
2016,09,24,04,29,6.90
2016,09,24,04,30,6.80
2016,09,24,04,31,6.80
2016,09,24,04,32,6.90
2016,09,24,04,33,6.90
2016,09,24,04,34,6.90
2016,09,24,04,35,6.90
2016,09,24,04,36,6.90
2016,09,24,04,37,6.90
2016,09,24,04,38,6.90
2016,09,24,04,39,6.90
2016,09,24,04,40,6.90
2016,09,24,04,41,6.90
2016,09,24,04,42,6.90
2016,09,24,04,43,6.90
2016,09,24,04,44,6.80
2016,09,24,04,45,6.90
2016,09,24,04,46,6.80
2016,09,24,04,47,6.80
2016,09,24,04,48,6.80
2016,09,24,04,49,6.80
2016,09,24,04,50,6.80
2016,09,24,04,51,6.80
2016,09,24,04,52,6.80
2016,09,24,04,53,6.80
2016,09,24,04,54,6.80
2016,09,24,04,55,6.80
2016,09,24,04,56,6.80
2016,09,24,04,57,6.80
2016,09,24,04,58,6.80
2016,09,24,04,59,6.80
2016,09,24,05,00,6.80
2016,09,24,05,01,6.80
2016,09,24,05,02,6.80
2016,09,24,05,03,6.80
2016,09,24,05,04,6.80
2016,09,24,05,05,6.80
2016,09,24,05,06,6.80
2016,09,24,05,07,6.80
2016,09,24,05,08,6.80
2016,09,24,05,09,6.80
2016,09,24,05,10,6.80
2016,09,24,05,11,6.80
2016,09,24,05,12,6.80
2016,09,24,05,13,6.80
2016,09,24,05,14,6.80
2016,09,24,05,15,6.80
2016,09,24,05,16,6.80
2016,09,24,05,17,6.80
2016,09,24,05,18,6.80
2016,09,24,05,19,6.80
2016,09,24,05,20,6.80
2016,09,24,05,21,6.80
2016,09,24,05,22,6.80
2016,09,24,05,23,6.80
2016,09,24,05,24,6.80
2016,09,24,05,25,6.80
2016,09,24,05,26,6.80
2016,09,24,05,27,6.80
2016,09,24,05,28,6.80
2016,09,24,05,29,6.80
2016,09,24,05,30,6.80
2016,09,24,05,31,6.80
2016,09,24,05,32,6.80
2016,09,24,05,33,6.80
2016,09,24,05,34,6.80
2016,09,24,05,35,6.80
2016,09,24,05,36,6.80
2016,09,24,05,37,6.80
2016,09,24,05,38,6.80
2016,09,24,05,39,6.80
2016,09,24,05,40,6.80
2016,09,24,05,41,6.80
2016,09,24,05,42,6.80
2016,09,24,05,43,6.80
2016,09,24,05,44,6.80
2016,09,24,05,45,6.80
2016,09,24,05,46,6.80
2016,09,24,05,47,6.80
2016,09,24,05,48,6.80
2016,09,24,05,49,6.80
2016,09,24,05,50,6.80
2016,09,24,05,51,6.80
2016,09,24,05,52,6.80
2016,09,24,05,53,6.80
2016,09,24,05,54,6.80
2016,09,24,05,55,6.80
2016,09,24,05,56,6.80
2016,09,24,05,57,6.80
2016,09,24,05,58,6.80
2016,09,24,05,59,6.80
2016,09,24,06,00,6.80
2016,09,24,06,01,6.80
2016,09,24,06,02,6.80
2016,09,24,06,03,6.90
2016,09,24,06,04,6.90
2016,09,24,06,05,6.90
2016,09,24,06,06,6.90
2016,09,24,06,07,6.90
2016,09,24,06,08,6.90
2016,09,24,06,09,6.90
2016,09,24,06,10,6.90
2016,09,24,06,11,6.90
2016,09,24,06,12,6.90
2016,09,24,06,13,7.00
2016,09,24,06,14,7.00
2016,09,24,06,15,7.00
2016,09,24,06,16,7.00
2016,09,24,06,17,7.00
2016,09,24,06,18,7.10
2016,09,24,06,19,7.00
2016,09,24,06,20,7.10
2016,09,24,06,21,7.10
2016,09,24,06,22,7.10
2016,09,24,06,23,7.10
2016,09,24,06,24,7.10
2016,09,24,06,25,7.10
2016,09,24,06,26,7.20
2016,09,24,06,27,7.30
2016,09,24,06,28,7.40
2016,09,24,06,29,7.40
2016,09,24,06,30,7.60
2016,09,24,06,31,7.60
2016,09,24,06,32,7.70
2016,09,24,06,33,7.70
2016,09,24,06,34,7.80
2016,09,24,06,35,7.80
2016,09,24,06,36,7.80
2016,09,24,06,37,7.80
2016,09,24,06,38,7.90
2016,09,24,06,39,7.90
2016,09,24,06,40,7.90
2016,09,24,06,41,7.90
2016,09,24,06,42,7.90
2016,09,24,06,43,7.90
2016,09,24,06,44,8.00
2016,09,24,06,45,8.00
2016,09,24,06,46,8.00
2016,09,24,06,47,8.00
2016,09,24,06,48,8.00
2016,09,24,06,49,8.00
2016,09,24,06,50,8.00
2016,09,24,06,51,8.00
2016,09,24,06,52,8.00
2016,09,24,06,53,8.00
2016,09,24,06,54,7.90
2016,09,24,06,55,7.90
2016,09,24,06,56,7.90
2016,09,24,06,57,7.90
2016,09,24,06,58,7.90
2016,09,24,06,59,7.80
2016,09,24,07,00,7.80
2016,09,24,07,01,7.80
2016,09,24,07,02,7.70
2016,09,24,07,03,7.70
2016,09,24,07,04,7.70
2016,09,24,07,05,7.60
2016,09,24,07,06,7.60
2016,09,24,07,07,7.60
2016,09,24,07,08,7.60
2016,09,24,07,09,7.50
2016,09,24,07,10,7.50
2016,09,24,07,11,7.50
2016,09,24,07,12,7.50
2016,09,24,07,13,7.50
2016,09,24,07,14,7.50
2016,09,24,07,15,7.50
2016,09,24,07,16,7.40
2016,09,24,07,17,7.40
2016,09,24,07,18,7.40
2016,09,24,07,19,7.40
2016,09,24,07,20,7.40
2016,09,24,07,21,7.40
2016,09,24,07,22,7.40
2016,09,24,07,23,7.40
2016,09,24,07,24,7.40
2016,09,24,07,25,7.40
2016,09,24,07,26,7.40
2016,09,24,07,27,7.40
2016,09,24,07,28,7.50
2016,09,24,07,29,7.50
2016,09,24,07,30,7.50
2016,09,24,07,31,7.50
2016,09,24,07,32,7.50
2016,09,24,07,33,7.50
2016,09,24,07,34,7.50
2016,09,24,07,35,7.50
2016,09,24,07,36,7.60
2016,09,24,07,37,7.60
2016,09,24,07,38,7.60
2016,09,24,07,39,7.60
2016,09,24,07,40,7.60
2016,09,24,07,41,7.60
2016,09,24,07,42,7.60
2016,09,24,07,43,7.60
2016,09,24,07,44,7.60
2016,09,24,07,45,7.60
2016,09,24,07,46,7.60
2016,09,24,07,47,7.70
2016,09,24,07,48,7.70
2016,09,24,07,49,7.70
2016,09,24,07,50,7.70
2016,09,24,07,51,7.70
2016,09,24,07,52,7.70
2016,09,24,07,53,7.70
2016,09,24,07,54,7.70
2016,09,24,07,55,7.80
2016,09,24,07,56,7.80
2016,09,24,07,57,7.80
2016,09,24,07,58,7.80
2016,09,24,07,59,7.80
2016,09,24,08,00,7.80
2016,09,24,08,01,7.80
2016,09,24,08,02,7.80
2016,09,24,08,03,7.80
2016,09,24,08,04,7.80
2016,09,24,08,05,7.80
2016,09,24,08,06,7.90
2016,09,24,08,07,7.90
2016,09,24,08,08,7.90
2016,09,24,08,09,7.90
2016,09,24,08,10,7.90
2016,09,24,08,11,7.90
2016,09,24,08,12,7.90
2016,09,24,08,13,7.90
2016,09,24,08,14,7.90
2016,09,24,08,15,7.90
2016,09,24,08,16,7.90
2016,09,24,08,17,7.90
2016,09,24,08,18,7.90
2016,09,24,08,19,8.00
2016,09,24,08,20,8.00
2016,09,24,08,21,8.00
2016,09,24,08,22,8.00
2016,09,24,08,23,8.10
2016,09,24,08,24,8.10
2016,09,24,08,25,8.10
2016,09,24,08,26,8.10
2016,09,24,08,27,8.10
2016,09,24,08,28,8.10
2016,09,24,08,29,8.10
2016,09,24,08,30,8.20
2016,09,24,08,31,8.20
2016,09,24,08,32,8.20
2016,09,24,08,33,8.30
2016,09,24,08,34,8.30
2016,09,24,08,35,8.30
2016,09,24,08,36,8.30
2016,09,24,08,37,8.40
2016,09,24,08,38,8.40
2016,09,24,08,39,8.40
2016,09,24,08,40,8.40
2016,09,24,08,41,8.40
2016,09,24,08,42,8.50
2016,09,24,08,43,8.50
2016,09,24,08,44,8.50
2016,09,24,08,45,8.60
2016,09,24,08,46,8.60
2016,09,24,08,47,8.60
2016,09,24,08,48,8.60
2016,09,24,08,49,8.60
2016,09,24,08,50,8.70
2016,09,24,08,51,8.70
2016,09,24,08,52,8.70
2016,09,24,08,53,8.70
2016,09,24,08,54,8.70
2016,09,24,08,55,8.80
2016,09,24,08,56,8.80
2016,09,24,08,57,8.80
2016,09,24,08,58,8.80
2016,09,24,08,59,8.90
2016,09,24,09,00,8.90
2016,09,24,09,01,8.90
2016,09,24,09,02,8.90
2016,09,24,09,03,9.00
2016,09,24,09,04,9.00
2016,09,24,09,05,9.00
2016,09,24,09,06,9.00
2016,09,24,09,07,9.00
2016,09,24,09,08,9.10
2016,09,24,09,09,9.10
2016,09,24,09,10,9.10
2016,09,24,09,11,9.10
2016,09,24,09,12,9.10
2016,09,24,09,13,9.10
2016,09,24,09,14,9.10
2016,09,24,09,15,9.10
2016,09,24,09,16,9.10
2016,09,24,09,17,9.10
2016,09,24,09,18,9.10
2016,09,24,09,19,9.10
2016,09,24,09,20,9.20
2016,09,24,09,21,9.20
2016,09,24,09,22,9.20
2016,09,24,09,23,9.20
2016,09,24,09,24,9.20
2016,09,24,09,25,9.20
2016,09,24,09,26,9.20
2016,09,24,09,27,9.20
2016,09,24,09,28,9.30
2016,09,24,09,29,9.30
2016,09,24,09,30,9.30
2016,09,24,09,31,9.30
2016,09,24,09,32,9.40
2016,09,24,09,33,9.40
2016,09,24,09,34,9.40
2016,09,24,09,35,9.40
2016,09,24,09,36,9.40
2016,09,24,09,37,9.40
2016,09,24,09,38,9.40
2016,09,24,09,39,9.50
2016,09,24,09,40,9.50
2016,09,24,09,41,9.50
2016,09,24,09,42,9.50
2016,09,24,09,43,9.60
2016,09,24,09,44,9.60
2016,09,24,09,45,9.60
2016,09,24,09,46,9.60
2016,09,24,09,47,9.60
2016,09,24,09,48,9.60
2016,09,24,09,49,9.60
2016,09,24,09,50,9.60
2016,09,24,09,51,9.60
2016,09,24,09,52,9.60
2016,09,24,09,53,9.60
2016,09,24,09,54,9.60
2016,09,24,09,55,9.60
2016,09,24,09,56,9.60
2016,09,24,09,57,9.70
2016,09,24,09,58,9.70
2016,09,24,09,59,9.70
2016,09,24,10,00,9.70
2016,09,24,10,01,9.70
2016,09,24,10,02,9.70
2016,09,24,10,03,9.70
2016,09,24,10,04,9.70
2016,09,24,10,05,9.80
2016,09,24,10,06,9.80
2016,09,24,10,07,9.80
2016,09,24,10,08,9.80
2016,09,24,10,09,9.80
2016,09,24,10,10,9.80
2016,09,24,10,11,9.80
2016,09,24,10,12,9.80
2016,09,24,10,13,9.80
2016,09,24,10,14,9.80
2016,09,24,10,15,9.90
2016,09,24,10,16,9.90
2016,09,24,10,17,9.90
2016,09,24,10,18,9.90
2016,09,24,10,19,9.90
2016,09,24,10,20,9.90
2016,09,24,10,21,9.90
2016,09,24,10,22,9.90
2016,09,24,10,23,9.90
2016,09,24,10,24,9.90
2016,09,24,10,25,9.90
2016,09,24,10,26,9.90
2016,09,24,10,27,10.00
2016,09,24,10,28,10.00
2016,09,24,10,29,10.00
2016,09,24,10,30,10.00
2016,09,24,10,31,10.00
2016,09,24,10,32,10.00
2016,09,24,10,33,10.10
2016,09,24,10,34,10.10
2016,09,24,10,35,10.10
2016,09,24,10,36,10.20
2016,09,24,10,37,10.20
2016,09,24,10,38,10.20
2016,09,24,10,39,10.30
2016,09,24,10,40,10.30
2016,09,24,10,41,10.40
2016,09,24,10,42,10.40
2016,09,24,10,43,10.50
2016,09,24,10,44,10.50
2016,09,24,10,45,10.60
2016,09,24,10,46,10.60
2016,09,24,10,47,10.60
2016,09,24,10,48,10.60
2016,09,24,10,49,10.60
2016,09,24,10,50,10.60
2016,09,24,10,51,10.60
2016,09,24,10,52,10.60
2016,09,24,10,53,10.60
2016,09,24,10,54,10.60
2016,09,24,10,55,10.60
2016,09,24,10,56,10.60
2016,09,24,10,57,10.60
2016,09,24,10,58,10.60
2016,09,24,10,59,10.60
2016,09,24,11,00,10.60
2016,09,24,11,01,10.70
2016,09,24,11,02,10.70
2016,09,24,11,03,10.70
2016,09,24,11,04,10.70
2016,09,24,11,05,10.80
2016,09,24,11,06,10.80
2016,09,24,11,07,10.90
2016,09,24,11,08,10.90
2016,09,24,11,09,10.90
2016,09,24,11,10,10.90
2016,09,24,11,11,10.90
2016,09,24,11,12,10.90
2016,09,24,11,13,10.90
2016,09,24,11,14,10.90
2016,09,24,11,15,10.90
2016,09,24,11,16,10.90
2016,09,24,11,17,11.00
2016,09,24,11,18,11.00
2016,09,24,11,19,11.00
2016,09,24,11,20,11.00
2016,09,24,11,21,11.00
2016,09,24,11,22,10.90
2016,09,24,11,23,10.90
2016,09,24,11,24,10.90
2016,09,24,11,25,11.00
2016,09,24,11,26,11.00
2016,09,24,11,27,11.10
2016,09,24,11,28,11.10
2016,09,24,11,29,11.20
2016,09,24,11,30,11.20
2016,09,24,11,31,11.20
2016,09,24,11,32,11.20
2016,09,24,11,33,11.30
2016,09,24,11,34,11.20
2016,09,24,11,35,11.20
2016,09,24,11,36,11.20
2016,09,24,11,37,11.20
2016,09,24,11,38,11.20
2016,09,24,11,39,11.30
2016,09,24,11,40,11.30
2016,09,24,11,41,11.30
2016,09,24,11,42,11.30
2016,09,24,11,43,11.40
2016,09,24,11,44,11.40
2016,09,24,11,45,11.40
2016,09,24,11,46,11.40
2016,09,24,11,47,11.40
2016,09,24,11,48,11.50
2016,09,24,11,49,11.50
2016,09,24,11,50,11.50
2016,09,24,11,51,11.60
2016,09,24,11,52,11.60
2016,09,24,11,53,11.60
2016,09,24,11,54,11.50
2016,09,24,11,55,11.50
2016,09,24,11,56,11.60
2016,09,24,11,57,11.60
2016,09,24,11,58,11.60
2016,09,24,11,59,11.60
2016,09,24,12,00,11.60
2016,09,24,12,01,11.70
2016,09,24,12,02,11.70
2016,09,24,12,03,11.70
2016,09,24,12,04,11.70
2016,09,24,12,05,11.70
2016,09,24,12,06,11.70
2016,09,24,12,07,11.70
2016,09,24,12,08,11.70
2016,09,24,12,09,11.70
2016,09,24,12,10,11.80
2016,09,24,12,11,11.80
2016,09,24,12,12,11.80
2016,09,24,12,13,11.80
2016,09,24,12,14,11.80
2016,09,24,12,15,11.80
2016,09,24,12,16,11.80
2016,09,24,12,17,11.80
2016,09,24,12,18,11.80
2016,09,24,12,19,11.80
2016,09,24,12,20,11.80
2016,09,24,12,21,11.80
2016,09,24,12,22,11.90
2016,09,24,12,23,11.90
2016,09,24,12,24,11.90
2016,09,24,12,25,12.00
2016,09,24,12,26,12.00
2016,09,24,12,27,12.10
2016,09,24,12,28,12.10
2016,09,24,12,29,12.10
2016,09,24,12,30,12.10
2016,09,24,12,31,12.10
2016,09,24,12,32,12.10
2016,09,24,12,33,12.10
2016,09,24,12,34,12.10
2016,09,24,12,35,12.20
2016,09,24,12,36,12.20
2016,09,24,12,37,12.20
2016,09,24,12,38,12.20
2016,09,24,12,39,12.20
2016,09,24,12,40,12.30
2016,09,24,12,41,12.30
2016,09,24,12,42,12.30
2016,09,24,12,43,12.30
2016,09,24,12,44,12.40
2016,09,24,12,45,12.40
2016,09,24,12,46,12.40
2016,09,24,12,47,12.40
2016,09,24,12,48,12.40
2016,09,24,12,49,12.40
2016,09,24,12,50,12.40
2016,09,24,12,51,12.40
2016,09,24,12,52,12.40
2016,09,24,12,53,12.50
2016,09,24,12,54,12.50
2016,09,24,12,55,12.60
2016,09,24,12,56,12.60
2016,09,24,12,57,12.70
2016,09,24,12,58,12.60
2016,09,24,12,59,12.60
2016,09,24,13,00,12.60
2016,09,24,13,01,12.60
2016,09,24,13,02,12.60
2016,09,24,13,03,12.60
2016,09,24,13,04,12.60
2016,09,24,13,05,12.60
2016,09,24,13,06,12.60
2016,09,24,13,07,12.70
2016,09,24,13,08,12.70
2016,09,24,13,09,12.70
2016,09,24,13,10,12.80
2016,09,24,13,11,12.80
2016,09,24,13,12,12.80
2016,09,24,13,13,12.80
2016,09,24,13,14,12.90
2016,09,24,13,15,12.90
2016,09,24,13,16,12.90
2016,09,24,13,17,12.90
2016,09,24,13,18,12.90
2016,09,24,13,19,12.90
2016,09,24,13,20,12.90
2016,09,24,13,21,12.90
2016,09,24,13,22,12.90
2016,09,24,13,23,12.90
2016,09,24,13,24,13.00
2016,09,24,13,25,13.00
2016,09,24,13,26,13.00
2016,09,24,13,27,13.00
2016,09,24,13,28,13.00
2016,09,24,13,29,13.00
2016,09,24,13,30,13.00
2016,09,24,13,31,12.90
2016,09,24,13,32,12.90
2016,09,24,13,33,12.80
2016,09,24,13,34,12.80
2016,09,24,13,35,12.80
2016,09,24,13,36,12.80
2016,09,24,13,37,12.80
2016,09,24,13,38,12.80
2016,09,24,13,39,12.80
2016,09,24,13,40,12.80
2016,09,24,13,41,12.80
2016,09,24,13,42,12.80
2016,09,24,13,43,12.80
2016,09,24,13,44,12.80
2016,09,24,13,45,12.80
2016,09,24,13,46,12.80
2016,09,24,13,47,12.80
2016,09,24,13,48,12.80
2016,09,24,13,49,12.80
2016,09,24,13,50,12.80
2016,09,24,13,51,12.80
2016,09,24,13,52,12.90
2016,09,24,13,53,12.90
2016,09,24,13,54,12.90
2016,09,24,13,55,13.00
2016,09,24,13,56,13.00
2016,09,24,13,57,13.10
2016,09,24,13,58,13.10
2016,09,24,13,59,13.10
2016,09,24,14,00,13.10
2016,09,24,14,01,13.10
2016,09,24,14,02,13.10
2016,09,24,14,03,13.10
2016,09,24,14,04,13.20
2016,09,24,14,05,13.20
2016,09,24,14,06,13.20
2016,09,24,14,07,13.20
2016,09,24,14,08,13.20
2016,09,24,14,09,13.30
2016,09,24,14,10,13.30
2016,09,24,14,11,13.30
2016,09,24,14,12,13.30
2016,09,24,14,13,13.30
2016,09,24,14,14,13.30
2016,09,24,14,15,13.30
2016,09,24,14,16,13.20
2016,09,24,14,17,13.10
2016,09,24,14,18,13.10
2016,09,24,14,19,13.10
2016,09,24,14,20,13.10
2016,09,24,14,21,13.10
2016,09,24,14,22,13.10
2016,09,24,14,23,13.10
2016,09,24,14,24,13.10
2016,09,24,14,25,13.10
2016,09,24,14,26,13.10
2016,09,24,14,27,13.10
2016,09,24,14,28,13.10
2016,09,24,14,29,13.10
2016,09,24,14,30,13.10
2016,09,24,14,31,13.10
2016,09,24,14,32,13.10
2016,09,24,14,33,13.10
2016,09,24,14,34,13.10
2016,09,24,14,35,13.10
2016,09,24,14,36,13.10
2016,09,24,14,37,13.20
2016,09,24,14,38,13.20
2016,09,24,14,39,13.20
2016,09,24,14,40,13.20
2016,09,24,14,41,13.20
2016,09,24,14,42,13.20
2016,09,24,14,43,13.20
2016,09,24,14,44,13.30
2016,09,24,14,45,13.30
2016,09,24,14,46,13.20
2016,09,24,14,47,13.20
2016,09,24,14,48,13.20
2016,09,24,14,49,13.20
2016,09,24,14,50,13.20
2016,09,24,14,51,13.20
2016,09,24,14,52,13.20
2016,09,24,14,53,13.20
2016,09,24,14,54,13.20
2016,09,24,14,55,13.20
2016,09,24,14,56,13.20
2016,09,24,14,57,13.20
2016,09,24,14,58,13.20
2016,09,24,14,59,13.20
2016,09,24,15,00,13.20
2016,09,24,15,01,13.20
2016,09,24,15,02,13.20
2016,09,24,15,03,13.20
2016,09,24,15,04,13.20
2016,09,24,15,05,13.20
2016,09,24,15,06,13.20
2016,09,24,15,07,13.20
2016,09,24,15,08,13.20
2016,09,24,15,09,13.20
2016,09,24,15,10,13.20
2016,09,24,15,11,13.20
2016,09,24,15,12,13.20
2016,09,24,15,13,13.20
2016,09,24,15,14,13.20
2016,09,24,15,15,13.20
2016,09,24,15,16,13.20
2016,09,24,15,17,13.20
2016,09,24,15,18,13.20
2016,09,24,15,19,13.20
2016,09,24,15,20,13.20
2016,09,24,15,21,13.20
2016,09,24,15,22,13.20
